Location: Eaton Estates
(41.3089°N, 82.0057°W)
Time: 13:06:59
(UTC+00:00)

DELTA 2 R/B (1) - Pass Details

Date: 17 June 2021
Orbit: 789 x 804 km, 39.6° (Epoch: 26 July)

Event Time Altitude Azimuth Distance (km) Brightness Sun altitude
Exits shadow 08:29:11 12° 259° (WSW) 2,238 5.4 -13.0°
Maximum altitude 08:34:25 74° 176° (S) 821 3.5 -12.3°
Drops below altitude 10° 08:39:57 10° 91° (E) 2,353 6.7 -11.6°
Sets 08:42:26 0° 90° (E) 3,285 7.5 -11.3°
